Home   Weather   Ski   Past weeks

Flag for Norway Past Weather in Ski, Norway — Yesterday and Last 2 Weeks

Now
32 °F

Cool.


Feels Like: 32 °F
Forecast: 24 / 31 °F
Wind: No wind

Location: Hasle - MADIS Station

Current Time: Jan 22, 2017 at 1:27:14 pm

Latest Report: Jan 22, 2017 at 12:47 pm


Visibility: N/A

Pressure: 29.60 "Hg

Humidity: 1%

Dew Point: -58 °F

Location of SkiLocation

Past Weather in Ski — Graph

°F

Ski Temperature Yesterday

Maximum temperature yesterday: 42 °F (at 2:40 am)
Minimum temperature yesterday: 29 °F (at 10:45 pm)
Average temperature yesterday: 34 °F

High & Low Weather Summary for the Past Weeks

 TemperatureHumidityPressure
High48 °F (Jan 20, 2:40 pm)61% (Jan 14, 9:48 pm)29.84 "Hg (Jan 14, 9:48 pm)
Low20 °F (Jan 16, 1:04 am)1% (Jan 7, 12:19 pm)27.93 "Hg (Jan 11, 3:19 pm)
Average31 °F14%29.28 "Hg
* Reported Jan 7 12:19 pm — Jan 22 12:34 pm, Ski, Weather by CustomWeather, © 2017

Note: Actual official high and low records may vary slightly from our data, if they occured in-between our weather recording intervals... More about our weather records

Advertising

Ski Weather History for the Previous 24 Hours

Scroll right to see more
 ConditionsComfort  
Time TempWeatherWind HumidityBarometerVisibility
12:34 pm
Sun, Jan 22
33 °FCool.No wind1%29.58 "HgN/A
12:16 pm33 °FCool.No wind1%29.59 "HgN/A
11:40 am32 °FCool.No wind1%29.60 "HgN/A
11:13 am32 °FCool.No wind1%29.61 "HgN/A
10:46 am32 °FCool.No wind1%29.61 "HgN/A
10:39 am32 °FCool.No wind1%29.64 "HgN/A
10:10 am32 °FCool.No wind1%29.62 "HgN/A
9:45 am32 °FCool.No wind1%29.65 "HgN/A
9:34 am32 °FCool.No wind1%29.62 "HgN/A
9:16 am32 °FCool.No wind1%29.62 "HgN/A
8:49 am32 °FCool.No wind1%29.62 "HgN/A
8:40 am32 °FCool.No wind1%29.62 "HgN/A
7:37 am32 °FCool.No wind1%29.63 "HgN/A
6:43 am32 °FCool.No wind1%29.64 "HgN/A
6:34 am32 °FCool.No wind1%29.64 "HgN/A
6:07 am32 °FCool.No wind1%29.64 "HgN/A
5:40 am32 °FCool.No wind1%29.65 "HgN/A
5:13 am32 °FCool.No wind1%29.66 "HgN/A
4:37 am32 °FCool.No wind1%29.66 "HgN/A
4:28 am32 °FCool.No wind1%29.66 "HgN/A
4:19 am32 °FCool.No wind1%29.66 "HgN/A
3:43 am31 °FCool.No wind1%29.68 "HgN/A
3:34 am31 °FCool.No wind1%29.68 "HgN/A
3:16 am31 °FCool.No wind1%29.68 "HgN/A
2:40 am32 °FCool.No wind1%29.69 "HgN/A
2:13 am32 °FCool.No wind1%29.70 "HgN/A
1:37 am31 °FCool.No wind1%29.70 "HgN/A
1:28 am31 °FCool.No wind1%29.70 "HgN/A
12:43 am31 °FCool.1 mph1%29.72 "HgN/A
12:35 am30 °FQuite cool.No wind1%29.74 "HgN/A
11:41 pm
Sat, Jan 21
30 °FQuite cool.2 mph1%29.74 "HgN/A
11:13 pm30 °FQuite cool.No wind1%29.71 "HgN/A
10:45 pm29 °FQuite cool.No wind1%29.74 "HgN/A
10:28 pm30 °FQuite cool.No wind1%29.71 "HgN/A
9:52 pm30 °FQuite cool.No wind1%29.72 "HgN/A
9:15 pm30 °FQuite cool.No wind1%29.75 "HgN/A
8:49 pm31 °FCool.No wind1%29.73 "HgN/A
8:19 pm31 °FCool.No wind1%29.75 "HgN/A
7:28 pm31 °FCool.No wind1%29.73 "HgN/A
6:52 pm32 °FCool.No wind1%29.73 "HgN/A
6:34 pm32 °FCool.No wind1%29.73 "HgN/A
5:40 pm33 °FCool.No wind1%29.73 "HgN/A
5:22 pm33 °FCool.No wind1%29.73 "HgN/A
5:17 pm33 °FCool.No wind1%29.76 "HgN/A
4:46 pm33 °FCool.No wind1%29.74 "HgN/A
4:39 pm33 °FCool.No wind1%29.76 "HgN/A
4:19 pm34 °FCool.No wind1%29.74 "HgN/A
3:45 pm35 °FCool.No wind1%29.76 "HgN/A
3:34 pm36 °FCool.No wind1%29.73 "HgN/A
3:16 pm36 °FCool.No wind1%29.73 "HgN/A
2:49 pm39 °FCool.No wind1%29.73 "HgN/A
1:37 pm40 °FCool.1 mph1%29.73 "HgN/A
1:10 pm37 °FCool.1 mph1%29.74 "HgN/A
Weather by CustomWeather, © 2017

See weather overviewHow to use our weather pages